Location: State Camp
(41.2367°N, 77.7828°W)
Time: 20:52:19
(UTC-04:00)

ADEOS Rocket - Visible Passes

Search period start: 26 March 2017 00:00
Search period end: 05 April 2017 00:00
Orbit: 859 x 1307 km, 98.7° (Epoch: 25 March)

Date Brightness Start Highest point End Pass type
(mag) Time Alt. Az. Time Alt. Az. Time Alt. Az.
26 Mar 5.1 02:48:09 10° NE 02:50:14 18° ENE 02:50:14 18° ENE visible
26 Mar 3.3 04:32:51 10° N 04:37:12 42° NW 04:37:12 42° NW visible
27 Mar 3.6 03:43:42 10° NNE 03:47:39 46° NE 03:47:39 46° NE visible
27 Mar 4.3 05:30:51 10° NNW 05:34:09 16° WNW 05:34:37 16° WNW visible
28 Mar 4.8 02:55:27 10° NE 02:58:07 21° ENE 02:58:07 21° ENE visible
28 Mar 3.4 04:40:34 10° N 04:45:05 38° NW 04:45:05 38° NW visible
29 Mar 3.3 03:51:16 10° NNE 03:55:33 55° NNE 03:55:33 55° NNE visible
29 Mar 4.5 05:38:55 10° NNW 05:41:37 14° WNW 05:42:30 13° WNW visible
30 Mar 4.5 03:02:48 10° NE 03:06:02 26° ENE 03:06:02 26° ENE visible
30 Mar 3.5 04:48:17 10° N 04:52:59 34° WNW 04:52:59 34° WNW visible
31 Mar 3.0 03:58:51 10° NNE 04:03:27 64° N 04:03:27 64° N visible
31 Mar 4.6 05:47:12 10° NW 05:49:04 12° WNW 05:50:25 11° WNW visible
01 Apr 4.2 03:10:12 10° NNE 03:13:55 32° ENE 03:13:55 32° ENE visible
01 Apr 3.7 04:56:02 10° N 05:00:41 29° WNW 05:00:53 29° WNW visible
02 Apr 5.3 02:23:14 10° ENE 02:24:24 12° ENE 02:24:24 12° ENE visible
02 Apr 2.8 04:06:26 10° N 04:11:22 68° NNW 04:11:22 68° NNW visible
03 Apr 3.9 03:17:38 10° NNE 03:21:51 39° ENE 03:21:51 39° ENE visible
03 Apr 3.9 05:03:47 10° N 05:08:11 25° WNW 05:08:48 25° WNW visible
04 Apr 5.1 02:30:08 10° NE 02:32:19 15° ENE 02:32:19 15° ENE visible
04 Apr 2.8 04:14:03 10° N 04:19:17 62° WNW 04:19:17 62° WNW visible
